Location: Prostejov
(49.4670°N, 17.1170°E)
Time: 09:56:42
(UTC+02:00)

ISS - Pass Details

Date: 24 May 2021
Orbit: 417 x 422 km, 51.6° (Epoch: 13 June)

Event Time Altitude Azimuth Distance (km) Brightness Sun altitude
Rises 22:59:58 0° 289° (WNW) 2,368 0.8 -15.6°
Reaches altitude 10° 23:02:04 10° 287° (WNW) 1,503 -0.3 -15.7°
Maximum altitude 23:05:26 73° 204° (SSW) 444 -3.8 -16.0°
Enters shadow 23:06:34 38° 128° (SE) 660 -3.2 -16.0°
